Вернуться в каталог

STARLINK-35838

АктивенСвязьVLEO
NORAD 66836·PAYLOAD·🇺🇸 United States

Запущен Dec 2, 2025 с Vandenberg Space Force Base

Loading…

Ближайшие Пролёты (ближайшие 24 часа)

TLE

СвежийSource: CelesTrak SupGP

Эпоха: Sep 15, 2026, 02:59 UTC

1 66836C 25280R   26258.12479167 -.00040168  00000+0 -33652-2 0  2585
2 66836  70.0001 216.7324 0003667 259.5439  99.5359 14.98361757    15

Отслеживайте STARLINK-35838 в реальном времени с AllMySat

Download on the App Store